Weather in Ovalle

Chile     30°35′47″S   71°11′52″W
temp.,
°C
wind,
m/s
gust,
m/s
humid.,
%
clouds,
%
prec.,
mm/h
press.,
hPa
HPBL,
m
24 july, sat
sat2423:00+8wnw119450 0.0 101782
02:00+8nw118781 0.0 1017292
05:00+8wnw1185100 0.0 1017235
08:00+9nw1283100 0.0 1019389
11:00+10n347497 0.0 1021676
14:00+11nnw4568100 0.0 1021806
17:00+11nnw12689 0.0 1021551
20:00+8sse01810 0.0 102010
25 july, sun
sun2523:00+7ssw11860 0.0 102110
02:00+6e11870 0.0 102011
05:00+6sse11860 0.0 101810
08:00+6e11860 0.0 101910
11:00+13s11520 0.0 1019379
14:00+17wsw22340 0.0 10171052
17:00+16sw32350 0.0 1017767
20:00+11wsw11594 0.0 101910
26 july, mon
mon2623:00+8wsw11720 0.0 102110
02:00+7w11790 0.0 102110
05:00+6s11820 0.0 102110
08:00+6ese11820 0.0 102210
11:00+12ssw11520 0.0 1022561
14:00+15sw21400 0.0 10201223
17:00+15sw21400 0.0 10191053
20:00+10ssw11810 0.0 102113
27 july, tue
tue2723:00+8ese00870 0.0 102210
02:00+7ese11890 0.0 102210
05:00+7s00880 0.0 102210
08:00+7ese11870 0.0 102310
11:00+14ssw21540 0.0 1023386
14:00+17sw22370 0.0 1020841
17:00+17ssw21380 0.0 1019593
20:00+11sw11680 0.0 102012
28 july, wed
wed2823:00+8sw11800 0.0 102010
02:00+7sw11860 0.0 102010
05:00+6s11890 0.0 101910
08:00+6se00850 0.0 101910
11:00+14ssw10490 0.0 1018306
14:00+18wsw22320 0.0 1017784
17:00+18sw22300 0.0 1016751
20:00+12wsw11600 0.0 101710